When you browse on this site, cookies collect data to enhance your experience and personalize the content and advertising you see.
Visit our Privacy Policy to learn more. By continuing to use the site, you agree to this use of cookies and data.
  • In Portugal
  • List of Countries
  • For 7 days
  • Water Temperature
  • Satellite Maps
  • Weather Map
  • Weather Widgets
  • user-avatar
    Login

    Hourly Weather Ogorodchiki

    Today, 24 March, Sunday

    Time Temperature Precipitation Wind Pressure Humidity
    00:00 +5°C° 0 mm 4 mps 749 mmHg 65%
    01:00 +5°C° 0 mm 4 mps 749 mmHg 74%
    02:00 +5°C° 0 mm 4 mps 748 mmHg 84%
    03:00 +4°C° 0 mm 4 mps 748 mmHg 86%
    04:00 +3°C° 0 mm 4 mps 748 mmHg 88%
    05:00 +1°C° 0 mm 4 mps 748 mmHg 90%
    06:00 +1°C° 0 mm 4 mps 748 mmHg 86%
    07:00 +1°C° 0 mm 4 mps 748 mmHg 83%
    08:00 +1°C° 0 mm 5 mps 748 mmHg 79%
    09:00 +2°C° 0 mm 5 mps 749 mmHg 71%
    10:00 +5°C° 0 mm 5 mps 749 mmHg 63%
    11:00 +6°C° 0 mm 5 mps 749 mmHg 55%
    12:00 +6°C° 0 mm 5 mps 748 mmHg 51%
    13:00 +7°C° 0 mm 5 mps 748 mmHg 47%
    14:00 +8°C° 0 mm 6 mps 748 mmHg 43%
    15:00 +7°C° 0 mm 5 mps 748 mmHg 45%
    16:00 +7°C° 0 mm 5 mps 747 mmHg 47%
    17:00 +6°C° 0 mm 5 mps 747 mmHg 48%
    18:00 +5°C° 0 mm 4 mps 747 mmHg 53%
    19:00 +4°C° 0 mm 3 mps 747 mmHg 58%
    20:00 +4°C° 0 mm 2 mps 747 mmHg 63%
    21:00 +4°C° 0 mm 2 mps 747 mmHg 66%
    22:00 +3°C° 0 mm 2 mps 747 mmHg 69%
    23:00 +2°C° 0 mm 2 mps 746 mmHg 71%

    Tomorrow, 25 March, Monday

    Time Temperature Precipitation Wind Pressure Humidity
    00:00 +2°C° 0 mm 2 mps 746 mmHg 74%
    01:00 +1°C° 0 mm 2 mps 746 mmHg 76%
    02:00 +2°C° 0 mm 1 mps 746 mmHg 78%
    03:00 +1°C° 0 mm 1 mps 745 mmHg 78%
    04:00 +1°C° 0 mm 1 mps 745 mmHg 78%
    05:00 +1°C° 0 mm 1 mps 744 mmHg 78%
    06:00 +1°C° 0 mm 2 mps 744 mmHg 74%
    07:00 +1°C° 0 mm 2 mps 744 mmHg 71%
    08:00 +2°C° 0 mm 2 mps 743 mmHg 68%
    09:00 +3°C° 0 mm 2 mps 743 mmHg 60%
    10:00 +4°C° 0 mm 3 mps 743 mmHg 53%
    11:00 +5°C° 0 mm 3 mps 743 mmHg 45%
    12:00 +7°C° 0 mm 3 mps 742 mmHg 43%
    13:00 +7°C° 0 mm 3 mps 742 mmHg 41%
    14:00 +8°C° 0 mm 3 mps 742 mmHg 40%
    15:00 +7°C° 0 mm 2 mps 742 mmHg 41%
    16:00 +7°C° 0 mm 2 mps 742 mmHg 43%
    17:00 +7°C° 0 mm 2 mps 741 mmHg 44%
    18:00 +6°C° 0 mm 2 mps 742 mmHg 49%
    19:00 +5°C° 0 mm 2 mps 742 mmHg 55%
    20:00 +4°C° 0 mm 2 mps 742 mmHg 60%
    21:00 +4°C° 0 mm 2 mps 742 mmHg 63%
    22:00 +3°C° 0 mm 2 mps 742 mmHg 66%
    23:00 +2°C° 0 mm 2 mps 742 mmHg 69%

    Day after tomorrow, 26 March, Tuesday

    Time Temperature Precipitation Wind Pressure Humidity
    00:00 +1°C° 0 mm 3 mps 743 mmHg 74%
    01:00 +1°C° 0 mm 3 mps 743 mmHg 80%
    02:00 0°C° 0 mm 3 mps 743 mmHg 86%
    03:00 -1°C° 0.1 mm 4 mps 744 mmHg 83%
    04:00 -1°C° 0.1 mm 5 mps 744 mmHg 80%
    05:00 -2°C° 0.1 mm 6 mps 744 mmHg 77%
    06:00 -2°C° 0 mm 6 mps 745 mmHg 75%
    07:00 -3°C° 0 mm 6 mps 745 mmHg 72%
    08:00 -3°C° 0 mm 6 mps 746 mmHg 70%
    09:00 -2°C° 0 mm 6 mps 746 mmHg 64%
    10:00 -1°C° 0 mm 6 mps 746 mmHg 58%
    11:00 0°C° 0 mm 7 mps 746 mmHg 52%
    12:00 0°C° 0.4 mm 7 mps 746 mmHg 55%
    13:00 0°C° 0.4 mm 7 mps 745 mmHg 57%
    14:00 0°C° 0.4 mm 7 mps 745 mmHg 60%
    15:00 -1°C° 0.4 mm 7 mps 745 mmHg 65%
    16:00 -1°C° 0.4 mm 7 mps 745 mmHg 70%
    17:00 -2°C° 0.4 mm 7 mps 745 mmHg 75%
    18:00 -3°C° 0.1 mm 6 mps 746 mmHg 72%
    19:00 -4°C° 0.1 mm 6 mps 746 mmHg 69%
    20:00 -5°C° 0.1 mm 5 mps 747 mmHg 67%
    21:00 -5°C° 0 mm 5 mps 747 mmHg 70%
    22:00 -6°C° 0 mm 5 mps 748 mmHg 74%
    23:00 -6°C° 0 mm 5 mps 749 mmHg 78%

    27 March, Wednesday

    Time Temperature Precipitation Wind Pressure Humidity
    00:00 -6°C° 0 mm 5 mps 749 mmHg 81%
    01:00 -6°C° 0 mm 5 mps 750 mmHg 83%
    02:00 -5°C° 0 mm 4 mps 750 mmHg 86%
    03:00 -5°C° 0 mm 4 mps 751 mmHg 88%
    04:00 -5°C° 0 mm 3 mps 751 mmHg 90%
    05:00 -6°C° 0 mm 3 mps 752 mmHg 91%
    06:00 -5°C° 0 mm 3 mps 752 mmHg 88%
    07:00 -4°C° 0 mm 3 mps 753 mmHg 84%
    08:00 -4°C° 0 mm 3 mps 753 mmHg 81%
    09:00 -1°C° 0 mm 3 mps 753 mmHg 71%
    10:00 0°C° 0 mm 3 mps 754 mmHg 62%
    11:00 +1°C° 0 mm 3 mps 754 mmHg 53%
    12:00 +2°C° 0 mm 3 mps 754 mmHg 49%
    13:00 +3°C° 0 mm 3 mps 754 mmHg 45%
    14:00 +4°C° 0 mm 3 mps 753 mmHg 41%
    15:00 +4°C° 0 mm 3 mps 753 mmHg 45%
    16:00 +5°C° 0 mm 2 mps 753 mmHg 50%
    17:00 +5°C° 0 mm 2 mps 753 mmHg 54%
    18:00 +4°C° 0 mm 2 mps 753 mmHg 61%
    19:00 +3°C° 0 mm 2 mps 754 mmHg 67%
    20:00 +3°C° 0 mm 1 mps 754 mmHg 74%
    21:00 +3°C° 0.1 mm 1 mps 754 mmHg 78%
    22:00 +2°C° 0.1 mm 2 mps 754 mmHg 83%
    23:00 +2°C° 0.1 mm 2 mps 754 mmHg 87%

    28 March, Thursday

    Time Temperature Precipitation Wind Pressure Humidity
    00:00 +2°C° 0 mm 2 mps 754 mmHg 89%
    01:00 +2°C° 0 mm 2 mps 754 mmHg 90%
    02:00 +2°C° 0 mm 2 mps 754 mmHg 92%
    03:00 +2°C° 0 mm 2 mps 754 mmHg 93%
    04:00 +3°C° 0 mm 1 mps 754 mmHg 94%
    05:00 +3°C° 0 mm 1 mps 754 mmHg 96%
    06:00 +3°C° 0 mm 1 mps 755 mmHg 95%
    07:00 +4°C° 0 mm 1 mps 755 mmHg 94%
    08:00 +4°C° 0 mm 1 mps 755 mmHg 94%
    09:00 +5°C° 0 mm 1 mps 755 mmHg 88%
    10:00 +5°C° 0 mm 2 mps 755 mmHg 83%
    11:00 +6°C° 0 mm 2 mps 756 mmHg 78%
    12:00 +6°C° 0 mm 2 mps 756 mmHg 76%
    13:00 +7°C° 0 mm 3 mps 756 mmHg 75%
    14:00 +7°C° 0 mm 3 mps 756 mmHg 73%
    15:00 +7°C° 0 mm 3 mps 755 mmHg 73%
    16:00 +5°C° 0 mm 3 mps 755 mmHg 73%
    17:00 +5°C° 0 mm 3 mps 755 mmHg 74%
    18:00 +5°C° 0 mm 3 mps 755 mmHg 77%
    19:00 +4°C° 0 mm 3 mps 755 mmHg 80%
    20:00 +4°C° 0 mm 2 mps 756 mmHg 83%
    21:00 +4°C° 0 mm 2 mps 756 mmHg 86%
    22:00 +3°C° 0 mm 2 mps 756 mmHg 88%
    23:00 +3°C° 0 mm 2 mps 756 mmHg 91%

    29 March, Friday

    Time Temperature Precipitation Wind Pressure Humidity
    00:00 +2°C° 0 mm 2 mps 756 mmHg 92%
    01:00 +2°C° 0 mm 2 mps 756 mmHg 93%
    02:00 +1°C° 0 mm 2 mps 756 mmHg 95%
    03:00 +1°C° 0 mm 2 mps 756 mmHg 94%
    04:00 +1°C° 0 mm 2 mps 756 mmHg 94%
    05:00 +1°C° 0 mm 2 mps 756 mmHg 94%
    06:00 +1°C° 0 mm 3 mps 756 mmHg 90%
    07:00 +1°C° 0 mm 3 mps 756 mmHg 85%
    08:00 +2°C° 0 mm 3 mps 756 mmHg 81%
    09:00 +4°C° 0 mm 3 mps 756 mmHg 73%
    10:00 +7°C° 0 mm 3 mps 756 mmHg 65%
    11:00 +8°C° 0 mm 3 mps 756 mmHg 57%
    12:00 +8°C° 0 mm 4 mps 755 mmHg 54%
    13:00 +10°C° 0 mm 4 mps 755 mmHg 50%
    14:00 +10°C° 0 mm 5 mps 755 mmHg 46%
    15:00 +11°C° 0 mm 4 mps 754 mmHg 49%
    16:00 +11°C° 0 mm 4 mps 754 mmHg 51%
    17:00 +11°C° 0 mm 4 mps 753 mmHg 53%
    18:00 +10°C° 0 mm 4 mps 753 mmHg 61%
    19:00 +7°C° 0 mm 4 mps 753 mmHg 69%
    20:00 +7°C° 0 mm 3 mps 753 mmHg 77%
    21:00 +5°C° 0 mm 3 mps 753 mmHg 81%
    22:00 +5°C° 0 mm 4 mps 753 mmHg 85%
    23:00 +5°C° 0 mm 4 mps 753 mmHg 89%
    Show more